Tracking 29932 objects as of 4-Dec-2024
HD Live streaming from Space Station
objects crossing your sky now

STARLINK-30497

Track STARLINK-30497 now!
10-day predictions
STARLINK-30497 is classified as:


NORAD ID: 58011
Int'l Code: 2023-153W
Perigee: 565.9 km
Apogee: 566.5 km
Inclination: 43.0 °
Period: 95.8 minutes
Semi major axis: 6937 km
RCS: Unknown
Launch date: October 5, 2023
Source: United States (US)
Launch site: AIR FORCE EASTERN TEST RANGE (AFETR)
Your satellite tracking list
Your tracking list is empty




NASA's NSSDC Master Catalog

Two Line Element Set (TLE):
1 58011U 23153W   24338.48983770  .00003744  00000-0  29214-3 0  9994
2 58011  43.0006  55.3038 0000441 283.2317  76.8476 15.02530134 65495
Source of the keplerian elements: AFSPC